STARLINK-1642, 46154

Orbit data source: Space-Track

STARLINK-1642, 46154 is a payload satellite owned by SpaceX/Seattle (US) in LEO that was launched on Tue, 18 Aug 2020 UTC via an FALCON 9 launch vehicle from the Air Force Eastern Test Range (AFETR). Payload-class satellites include a variety of spacecraft equipped with specific instruments for various scientific and technological missions. These include communications satellites like Starlink; space stations such as the ISS; scientific satellites like the Hubble; Earth observation satellites from companies like Planet Labs, Umbra, and HawkEye 360; GPS; miniature CubeSats for education and research; and military/defense satellites.

Loading next visibility...
Identifier
46154, 2020-057AP
Orbit
LEO
Country
Flag of USUS
Related business
Manufacturer
SpaceX/Seattle
Mission
Partially operational Commercial Communications
Bus & Motor
STARLINK, Unknown motor
Mass
260 kg wet, ~248 kg dry
Launch date (UTC)
2020-08-18 (5 years ago)
Launch vehicle
FALCON 9
Launch site
Air Force Eastern Test Range (AFETR)
Object type
Payload
Rocket body
Debris
Shape & HBR
Box + 1 Pan, 10.1 m
Radar Cross Section
13.562 m², Large (>1 m²)

Expand to show TLE details & history
Last TLE update: 7 hours ago

TLE from 7 hours ago
0 STARLINK-1642
1 46154U 20057AP  25355.58335648  .00211371  00000-0  22385-2 0  9993
2 46154  53.0456 263.5242 0007936  85.6029 254.9431 15.62909686  5975
Epoch: 2025-12-21T14:00Z
TLE epoch observation values (Epoch: 2025-12-21T14:00:01.999Z)
Latitude
-15.67038°
Longitude
-48.99221°
Altitude
384.877 km
Speed
7.679 km/s
True Right ascension
16h 45m 38s
True Declination
-15° 34' 35"
Sunlit
Object was in daylight at epoch
Visualization orbit readout
Latitude
Unknown
Longitude
Unknown
Altitude
Unknown
Speed
Unknown
Apparent Right ascension
Unknown
Apparent Declination
Unknown
Sunlit
N/A
Visualization observer readout
Local Sidereal Time
19:54:28
Azimuth
Unknown
Elevation
Unknown
Doppler factor
Unknown
Orbital elements
Apogee altitude
384.899 km
Perigee altitude
374.173 km
Semi-major axis
6,757.673 km
Eccentricity
0.00079
Inclination
53.0456°
RAAN
263.5242°
Arg. of periapsis
85.6029°
True anomaly
254.8553°
Mean anomaly
254.9431°
Eccentric anomaly
254.8992°
Mean motion
3.90704 °/min
Orbital period
92.14 mins
BSTAR
0.0022385
Loading maneuver chart data...
Computing Atmospheric mass density...
Loading historical data...
Loading historical data...
Loading historical data...
Loading historical data...
Loading historical data...
Loading historical data...
Loading historical data...

Documentation

Showing up to 5 results
|